Location: Charlotte
(35.2269°N, 80.8433°W)
Time: 00:42:13
(UTC-04:00)

ISS - Visible Passes

Search period start: 19 April 2014 00:00
Search period end: 29 April 2014 00:00
Orbit: 414 x 419 km, 51.6° (Epoch: 18 April)

Date Brightness Start Highest point End Pass type
(mag) Time Alt. Az. Time Alt. Az. Time Alt. Az.
19 Apr -0.8 22:18:17 10° NNW 22:19:42 20° NNW 22:19:42 20° NNW visible
20 Apr -1.4 21:30:14 10° NNW 21:32:47 20° NNE 21:33:14 19° NE visible
21 Apr -0.8 20:42:22 10° N 20:44:08 14° NNE 20:45:54 10° ENE visible
21 Apr -1.2 22:17:54 10° NW 22:19:40 29° NW 22:19:40 29° NW visible
22 Apr -2.9 21:29:29 10° NW 21:32:46 50° NE 21:33:12 46° ENE visible
23 Apr -1.9 20:41:11 10° NNW 20:44:09 29° NE 20:46:46 12° E visible
23 Apr -0.9 22:18:02 10° WNW 22:19:40 20° W 22:19:40 20° W visible
24 Apr -2.5 21:29:06 10° WNW 21:32:19 45° SW 21:33:16 34° S visible
25 Apr -3.3 20:40:23 10° NW 20:43:45 88° NE 20:46:53 11° SE visible
26 Apr -0.6 21:29:39 10° W 21:31:28 14° SW 21:33:18 10° SSW visible
27 Apr -1.4 20:40:05 10° WNW 20:42:56 26° SW 20:45:46 10° S visible
